Location: McFarlands Corners
(41.4117°N, 81.3382°W)
Time: 04:58:29
(UTC+00:00)

BlueWalker 3 - Visible Passes

Search period start: 20 January 2026 00:00
Search period end: 30 January 2026 00:00
Orbit: 451 x 463 km, 53.2° (Epoch: 19 January)

Date Brightness Start Highest point End Pass type
(mag) Time Alt. Az. Time Alt. Az. Time Alt. Az.
20 Jan 3.6 00:46:21 10° SW 00:48:12 29° SW 00:48:12 29° SW visible
21 Jan 1.5 00:11:00 10° SW 00:14:33 75° SE 00:14:39 74° ESE visible
21 Jan 1.9 23:35:42 10° SW 23:39:11 55° SE 23:41:01 25° ENE visible
22 Jan 4.7 01:13:53 10° W 01:14:46 15° WNW 01:14:46 15° WNW visible
22 Jan 2.4 23:00:28 10° SSW 23:03:50 40° SE 23:07:12 10° ENE visible
23 Jan 3.4 00:38:13 10° W 00:41:02 28° NW 00:41:02 28° NW visible
24 Jan 2.9 00:02:35 10° W 00:05:54 35° NNW 00:07:14 26° NNE visible
24 Jan 2.6 23:26:59 10° WSW 23:30:25 44° NNW 23:33:21 13° NE visible
25 Jan 4.7 01:06:31 10° NW 01:07:05 12° NW 01:07:05 12° NW visible
26 Jan 4.0 00:30:43 10° NW 00:33:02 16° NNW 00:33:09 16° NNW visible
26 Jan 3.9 23:54:55 10° WNW 23:57:26 18° NNW 23:59:10 13° NNE visible
27 Jan 3.7 23:19:06 10° WNW 23:21:51 20° NNW 23:24:35 10° NNE visible
28 Jan 4.7 00:58:51 10° NNW 00:58:52 10° NNW 00:58:52 10° NNW visible
29 Jan 4.2 00:23:09 10° NNW 00:24:45 12° N 00:24:48 12° N visible
29 Jan 4.1 23:47:22 10° NW 23:49:04 13° N 23:50:44 10° NNE visible
